Stations météo

réclame
Mon MeteoGroup
Genthin, Allemagne (10365): Température de l'air & dewpoint: 17.10.2018 07:00:00 - 23.10.2018 07:00:00 (CEST)Genthin, Allemagne (10365): Température de l'air 5cm & Température de l'air -5cm: 17.10.2018 07:00:00 - 23.10.2018 07:00:00 (CEST)Genthin, Allemagne (10365): Température de l'air -20cm & Température de l'air -100cm: 17.10.2018 07:00:00 - 23.10.2018 07:00:00 (CEST)Genthin, Allemagne (10365): Vitesse du vent & gusts: 17.10.2018 07:00:00 - 23.10.2018 07:00:00 (CEST)Genthin, Allemagne (10365): Direction du vent: 17.10.2018 07:00:00 - 23.10.2018 07:00:00 (CEST)Genthin, Allemagne (10365): reduced air pressure: 17.10.2018 07:00:00 - 23.10.2018 07:00:00 (CEST)Genthin, Allemagne (10365): visibility: 17.10.2018 07:00:00 - 23.10.2018 07:00:00 (CEST)Genthin, Allemagne (10365): Ensoleillement: 17.10.2018 07:00:00 - 23.10.2018 07:00:00 (CEST)Genthin, Allemagne (10365): Quantités de précipitations: 17.10.2018 07:00:00 - 23.10.2018 07:00:00 (CEST)
Date & Time tt [°C] td [°C] tt 5cm [°C] tt -5cm [°C] tt -20cm [°C] tt -100cm [°C] ff [km/h] ff [knt] fx [km/h] fx [knt] dd ppp [hPa] vv [km] sd [min] rr [mm]
23.10.2018 07:00:00 6,6 2,3 6,0 5,5 8,4 13,6 16 9 33 18 SW 1020,0 39 0 0,0
23.10.2018 06:00:00 5,8 2,5 5,2 4,9 8,6 13,6 13 7 24 13 SW 1022,2 39 0 0,0
23.10.2018 05:00:00 5,4 2,4 4,3 4,8 8,7 13,6 11 6 20 11 SW 1024,0 39 0 0,0
23.10.2018 04:00:00 5,0 2,6 3,8 4,7 8,9 13,7 10 5 26 14 SW 1025,1 35 0 0,0
23.10.2018 03:00:00 4,7 2,5 3,4 4,7 9,2 13,7 11 6 18 10 SW 1026,2 34 0 0,0
23.10.2018 02:00:00 4,2 2,4 2,7 4,7 9,5 13,7 9 5 14 7 WSW 1027,5 33 0 0,0
23.10.2018 01:00:00 3,5 2,2 1,2 5,1 9,8 13,7 6 3 11 6 WSW 1028,6 33 0 0,0
23.10.2018 00:00:00 4,1 2,4 2,5 5,6 10,1 13,7 6 4 11 6 WSW 1029,1 36 0 0,0
22.10.2018 23:00:00 4,7 2,6 3,1 6,1 10,5 13,7 6 4 14 8 WSW 1029,6 38 0 0,0
22.10.2018 22:00:00 5,3 2,9 3,7 6,7 10,8 13,7 7 4 12 6 WSW 1029,8 36 0 0,0
22.10.2018 21:00:00 6,6 2,9 4,8 7,5 11,1 13,7 8 4 13 7 WSW 1029,8 44 0 0,0
22.10.2018 20:00:00 4,6 3,0 1,3 7,8 11,5 13,7 6 3 9 5 WSW 1029,9 33 0 0,0
22.10.2018 19:00:00 7,0 4,2 4,3 9,3 11,7 13,7 5 3 15 8 WSW 1029,5 29 0 0,0
22.10.2018 18:00:00 10,5 3,7 9,1 11,0 11,7 13,8 12 7 24 13 NW 1029,2 42 16 0,0
22.10.2018 17:00:00 11,4 4,8 10,3 12,8 11,5 13,8 13 7 24 13 NW 1028,8 36 37 0,0
22.10.2018 16:00:00 12,7 6,9 13,5 13,3 11,1 13,8 15 8 26 14 NW 1028,3 42 41 0,0
22.10.2018 15:00:00 12,0 9,0 13,0 12,1 10,8 13,8 11 6 20 11 NW 1028,3 46 28 0,0
22.10.2018 14:00:00 10,0 8,5 10,2 10,6 10,7 13,8 8 4 19 11 NNW 1028,4 45 0 0,1
22.10.2018 13:00:00 9,5 8,3 9,8 10,2 10,6 13,8 14 8 37 20 N 1028,4 35 0 0,7
22.10.2018 12:00:00 9,9 9,3 9,9 10,0 10,5 13,8 13 7 20 11 NW 1027,7 3,6 0 0,9
22.10.2018 11:00:00 9,1 8,2 9,1 9,8 10,3 13,8 8 4 18 10 W 1027,0 1,8 0 0,0
22.10.2018 10:00:00 9,3 6,1 9,9 9,3 10,3 13,8 3 2 8 4 W 1026,6 25 0 0,0
22.10.2018 09:00:00 7,4 5,3 7,9 8,4 10,3 13,8 3 1 10 5 SSW 1026,2 18 0 0,0
22.10.2018 08:00:00 6,3 4,5 6,6 8,0 10,3 13,8 5 3 11 6 S 1025,8 16 0 0,0
22.10.2018 07:00:00 5,0 4,3 5,2 7,5 10,4 13,8 4 2 8 4 SW 1025,8 12 0 0,0
22.10.2018 06:00:00 5,1 4,0 3,5 7,7 10,6 13,8 3 2 9 5 SSE 1025,6 14 0 0,0
22.10.2018 05:00:00 3,0 2,1 2,9 7,3 10,8 13,8 4 2 9 5 SSW 1025,7 9 0 0,0
22.10.2018 04:00:00 3,1 2,4 2,6 7,5 11,0 13,8 3 2 6 3 SW 1026,1 17 0 0,0
22.10.2018 03:00:00 3,3 2,5 0,8 7,8 11,3 13,8 2 1 10 5 S 1026,5 21 0 0,0
22.10.2018 02:00:00 4,5 3,2 1,6 8,4 11,5 13,8 3 1 9 5 S 1026,7 31 0 0,0
22.10.2018 01:00:00 7,1 4,5 7,0 8,4 11,8 13,8 5 3 13 7 S 1027,0 36 0 0,0
22.10.2018 00:00:00 3,8 3,2 1,6 8,5 12,1 13,9 5 3 10 6 S 1027,2 32 0 0,0
21.10.2018 23:00:00 3,6 3,2 1,0 9,1 12,5 13,9 5 3 9 5 S 1027,4 18 0 0,0
21.10.2018 22:00:00 4,1 3,5 1,2 9,8 12,9 13,9 2 1 6 3 S 1027,4 11 0 0,0
21.10.2018 21:00:00 5,7 5,2 1,7 10,7 13,2 13,9 0 0 4 2 N 1027,3 19 0 0,0
21.10.2018 20:00:00 6,7 5,7 2,6 11,9 13,5 13,9 0 0 8 5 N 1027,6 39 0 0,0
21.10.2018 19:00:00 8,9 6,0 5,1 13,4 13,7 13,9 5 3 7 4 S 1027,5 40 0 0,0
21.10.2018 18:00:00 12,6 7,2 8,8 15,1 13,6 13,9 3 2 10 5 S 1027,2 56 34 0,0
21.10.2018 17:00:00 14,7 6,7 14,7 16,6 13,2 13,9 5 3 11 6 SSW 1027,5 48 58 0,0
21.10.2018 16:00:00 15,5 6,3 17,6 17,3 12,7 14,0 6 3 14 8 SSW 1028,0 46 52 0,0
21.10.2018 15:00:00 15,9 5,8 19,0 17,2 12,0 14,0 6 4 14 8 WSW 1028,5 60 60 0,0
21.10.2018 14:00:00 15,5 4,7 18,8 15,9 11,2 14,0 5 3 14 8 SSW 1028,8 43 60 0,0
21.10.2018 13:00:00 14,6 5,1 18,3 14,2 10,6 14,0 5 3 11 6 SSW 1029,2 43 60 0,0
21.10.2018 12:00:00 13,4 6,6 16,7 12,0 10,2 14,0 4 2 10 6 S 1029,8 33 60 0,0
21.10.2018 11:00:00 11,3 6,9 13,8 9,5 10,0 14,0 5 3 9 5 SSE 1029,9 14 60 0,0
21.10.2018 10:00:00 8,0 5,1 9,2 7,5 10,1 14,0 1 1 4 2 S 1030,1 13 50 0,0
21.10.2018 09:00:00 2,7 2,0 2,9 6,7 10,3 14,0 2 1 6 3 SSW 1029,8 4,0 0 0,0
21.10.2018 08:00:00 2,1 1,6 0,6 6,5 10,5 14,0 2 1 4 2 SSW 1029,3 17 0 0,0
21.10.2018 07:00:00 0,9 0,3 -0,4 6,6 10,8 14,0 3 2 6 3 ESE 1029,2 0,4 0 0,0
21.10.2018 06:00:00 3,1 2,5 -1,5 7,3 11,1 14,0 3 2 5 3 W 1029,3 10 0 0,0
21.10.2018 05:00:00 3,6 3,0 -0,3 8,1 11,3 14,0 2 1 7 4 W 1029,0 4,5 0 0,0
21.10.2018 04:00:00 6,4 5,0 4,2 9,0 11,5 14,1 5 3 7 4 WSW 1029,0 27 0 0,0
21.10.2018 03:00:00 7,5 5,8 6,8 9,2 11,6 14,1 4 2 10 5 W 1029,2 34 0 0,0
21.10.2018 02:00:00 8,0 5,6 5,5 9,7 11,8 14,1 6 3 11 6 W 1029,1 33 0 0,0
21.10.2018 01:00:00 9,0 5,6 5,4 10,1 11,9 14,1 5 3 15 8 W 1029,1 37 0 0,0
21.10.2018 00:00:00 10,2 5,6 9,4 10,4 12,0 14,1 9 5 13 7 W 1029,1 42 0 0,0
20.10.2018 23:00:00 10,4 5,4 9,7 10,6 12,1 14,1 7 4 14 7 W 1028,9 39 0 0,0
20.10.2018 22:00:00 10,6 5,3 9,7 10,9 12,2 14,1 6 3 15 8 W 1029,2 46 0 0,0
20.10.2018 21:00:00 10,7 5,0 9,9 11,1 12,3 14,2 7 4 13 7 W 1029,0 40 0 0,0
20.10.2018 20:00:00 10,7 4,6 9,3 11,7 12,4 14,2 5 3 9 5 WSW 1028,9 45 0 0,0
20.10.2018 19:00:00 11,5 4,4 10,9 12,2 12,4 14,2 6 4 13 7 W 1028,9 37 0 0,0
20.10.2018 18:00:00 11,7 4,6 11,1 12,8 12,3 14,2 4 2 14 8 SW 1028,9 41 0 0,0
20.10.2018 17:00:00 12,5 3,7 12,8 13,2 12,2 14,2 6 4 13 7 W 1029,0 45 0 0,0
20.10.2018 16:00:00 12,3 3,8 12,6 13,3 12,0 14,2 7 4 13 7 NW 1029,1 37 0 0,0
20.10.2018 15:00:00 12,2 3,1 12,8 13,6 11,6 14,2 9 5 19 10 WNW 1029,3 38 0 0,0
20.10.2018 14:00:00 12,4 3,1 13,4 13,6 11,2 14,3 10 6 20 11 WNW 1029,4 37 0 0,0
20.10.2018 13:00:00 12,6 3,0 14,0 13,2 10,6 14,3 14 7 25 13 NW 1029,5 47 35 0,0
20.10.2018 12:00:00 12,4 2,7 15,7 11,6 10,2 14,3 12 7 22 12 WNW 1029,6 39 60 0,0
20.10.2018 11:00:00 10,4 3,6 12,7 9,5 10,0 14,3 4 2 12 7 WSW 1029,3 42 60 0,0
20.10.2018 10:00:00 7,7 4,0 8,9 8,0 10,0 14,3 5 3 10 5 WSW 1029,1 36 26 0,0
20.10.2018 09:00:00 5,1 3,5 5,6 7,4 10,0 14,3 4 2 8 5 W 1029,2 29 0 0,0
20.10.2018 08:00:00 3,5 2,5 3,9 7,1 10,1 14,3 3 2 6 4 W 1028,6 25 0 0,0
20.10.2018 07:00:00 3,0 2,2 3,4 6,9 10,2 14,3 4 2 6 3 NW 1027,9 28 0 0,0
20.10.2018 06:00:00 1,9 0,9 2,3 6,7 10,4 14,3 0 0 4 2 N 1027,8 30 0 0,0
20.10.2018 05:00:00 1,2 0,3 0,9 6,5 10,6 14,3 0 0 4 2 N 1027,8 35 0 0,0
20.10.2018 04:00:00 0,0 -0,8 -0,2 6,3 10,8 14,3 2 1 6 3 WNW 1027,5 29 0 0,0
20.10.2018 03:00:00 0,3 -0,6 -2,9 6,4 11,1 14,3 3 2 4 2 SW 1027,2 28 0 0,0
20.10.2018 02:00:00 0,4 -0,2 -1,3 6,7 11,5 14,4 2 1 4 2 WSW 1026,9 23 0 0,0
20.10.2018 01:00:00 0,8 0,0 -2,1 7,1 11,8 14,4 0 0 5 3 N 1026,7 24 0 0,0
20.10.2018 00:00:00 1,1 0,5 -1,9 7,6 12,2 14,4 0 0 4 2 N 1026,8 19 0 0,0
19.10.2018 23:00:00 1,6 0,9 -2,0 8,2 12,7 14,4 2 1 4 2 SW 1026,9 18 0 0,0
19.10.2018 22:00:00 2,5 1,7 -1,6 9,0 13,1 14,4 3 1 4 2 WSW 1026,8 28 0 0,0
19.10.2018 21:00:00 2,8 2,0 -1,2 10,0 13,5 14,4 2 1 3 2 WSW 1026,7 15 0 0,0
19.10.2018 20:00:00 4,9 3,1 0,0 11,2 13,9 14,4 3 1 4 2 WNW 1026,0 28 0 0,0
19.10.2018 19:00:00 6,8 3,6 1,6 12,8 14,1 14,4 2 1 5 3 SW 1025,6 32 0 0,0
19.10.2018 18:00:00 11,0 3,6 6,6 14,7 14,1 14,5 5 3 12 7 N 1025,0 39 41 0,0
19.10.2018 17:00:00 12,9 3,4 15,3 16,2 13,8 14,5 9 5 17 9 N 1025,1 46 60 0,0
19.10.2018 16:00:00 13,3 3,5 17,1 16,7 13,3 14,5 6 4 16 8 NNW 1025,3 50 60 0,0
19.10.2018 15:00:00 13,2 3,4 17,2 16,4 12,7 14,5 8 4 18 10 N 1025,6 29 60 0,0
19.10.2018 14:00:00 12,8 4,1 18,7 15,1 12,1 14,5 6 3 16 8 NNW 1026,1 44 60 0,0
19.10.2018 13:00:00 12,0 5,1 14,9 13,7 11,6 14,5 9 5 20 11 N 1026,6 57 55 0,0
19.10.2018 12:00:00 11,6 5,2 16,4 12,1 11,3 14,5 9 5 15 8 N 1026,8 53 60 0,0
19.10.2018 11:00:00 9,3 5,5 12,2 9,9 11,2 14,5 6 3 10 6 NW 1027,1 37 60 0,0
19.10.2018 10:00:00 6,7 4,4 8,1 8,3 11,3 14,5 5 3 9 5 NW 1026,8 31 60 0,0
19.10.2018 09:00:00 4,4 3,1 5,0 7,4 11,6 14,5 5 3 8 4 WNW 1026,2 16 31 0,0
19.10.2018 08:00:00 3,1 2,8 2,0 7,5 11,9 14,5 5 3 8 4 WNW 1025,9 1,1 0 0,0
19.10.2018 07:00:00 4,1 3,9 2,7 8,0 12,2 14,5 5 3 7 4 WNW 1025,5 - 0 0,0
19.10.2018 06:00:00 4,7 4,2 0,3 8,6 12,5 14,5 4 2 6 3 WNW 1025,3 - 0 0,0
19.10.2018 05:00:00 6,1 5,6 3,2 9,4 12,8 14,6 4 2 7 4 NW 1025,2 - 0 0,0
19.10.2018 04:00:00 6,9 6,1 1,9 10,3 13,0 14,6 4 2 11 6 NW 1025,0 - 0 0,0
19.10.2018 03:00:00 8,5 6,7 6,0 11,4 13,2 14,6 7 4 12 7 N 1025,1 - 0 0,0
19.10.2018 02:00:00 10,2 7,8 9,8 11,8 13,3 14,6 9 5 16 9 N 1025,1 - 0 0,0
19.10.2018 01:00:00 10,6 8,5 10,2 12,0 13,4 14,6 8 4 13 7 NNW 1025,0 - 0 0,0
19.10.2018 00:00:00 10,7 9,3 10,2 12,1 13,5 14,6 7 4 15 8 NNW 1025,0 - 0 0,0
18.10.2018 23:00:00 12,0 10,0 11,4 12,8 13,6 14,6 8 5 18 10 NNW 1024,7 - 0 0,0
18.10.2018 22:00:00 12,9 10,9 12,5 13,0 13,6 14,6 10 5 18 10 NNW 1024,4 - 0 0,0
18.10.2018 21:00:00 12,9 11,8 12,6 13,0 13,6 14,6 4 2 9 5 NNW 1023,8 - 0 0,0
18.10.2018 20:00:00 13,1 12,0 12,6 13,2 13,6 14,6 7 4 9 5 NNW 1023,5 - 0 0,0
18.10.2018 19:00:00 13,2 12,2 12,8 13,4 13,6 14,6 6 3 15 8 NW 1023,1 - 0 0,0
18.10.2018 18:00:00 13,4 12,4 13,0 13,7 13,6 14,6 12 6 27 14 N 1022,4 - 0 0,0
18.10.2018 17:00:00 13,6 12,6 13,4 13,9 13,4 14,6 12 6 24 13 NNW 1022,1 - 0 0,0
18.10.2018 16:00:00 14,8 12,0 15,1 14,1 13,3 14,7 6 3 13 7 NW 1021,8 - 0 0,0
18.10.2018 15:00:00 14,4 11,9 14,9 13,9 13,1 14,7 10 5 16 9 NNW 1021,8 - 0 0,0
18.10.2018 14:00:00 13,7 11,8 14,9 13,4 12,9 14,7 9 5 17 9 NNW 1021,8 - 0 0,0
18.10.2018 13:00:00 12,8 11,8 13,6 12,9 12,7 14,7 10 5 17 9 NNW 1022,1 - 0 0,0
18.10.2018 12:00:00 11,9 11,4 12,7 12,4 12,6 14,7 11 6 21 11 NNW 1022,0 - 0 0,0
18.10.2018 11:00:00 11,4 11,0 12,0 11,9 12,4 14,7 15 8 20 11 NW 1021,6 - 0 0,0
18.10.2018 10:00:00 10,9 10,6 11,4 11,3 12,4 14,7 10 5 17 9 NW 1021,4 - 0 0,0
18.10.2018 09:00:00 10,1 10,0 10,4 10,1 12,5 14,7 9 5 17 9 NW 1021,1 - 0 0,0
18.10.2018 08:00:00 5,6 5,0 6,2 9,4 12,6 14,6 2 1 5 3 W 1020,6 - 0 0,0
18.10.2018 07:00:00 5,0 4,3 4,2 9,5 12,8 14,6 3 1 4 2 SE 1020,0 - 0 0,0
18.10.2018 06:00:00 4,5 3,9 3,3 9,3 13,1 14,6 2 1 3 2 WSW 1019,8 - 0 0,0
18.10.2018 05:00:00 4,1 3,5 2,6 9,5 13,4 14,6 1 1 5 3 S 1019,7 - 0 0,0
18.10.2018 04:00:00 4,7 4,4 1,6 9,9 13,7 14,6 0 0 5 3 N 1019,6 - 0 0,0
18.10.2018 03:00:00 4,0 3,3 2,6 10,3 14,0 14,6 2 1 4 2 SE 1019,7 - 0 0,0
18.10.2018 02:00:00 6,4 5,7 2,9 10,8 14,4 14,6 3 1 5 3 W 1019,8 - 0 0,0
18.10.2018 01:00:00 6,4 5,9 4,0 11,3 14,8 14,6 2 1 4 2 S 1019,8 - 0 0,0
18.10.2018 00:00:00 7,1 6,3 3,7 11,9 15,1 14,6 1 1 4 2 SW 1019,8 - 0 0,0
17.10.2018 23:00:00 7,8 7,1 4,3 12,6 15,5 14,6 2 1 4 2 SE 1019,6 - 0 0,0
17.10.2018 22:00:00 8,7 7,3 5,1 13,4 15,9 14,6 0 0 3 2 N 1019,7 - 0 0,0
17.10.2018 21:00:00 9,7 8,2 5,7 14,3 16,3 14,6 0 0 2 1 N 1019,5 - 0 0,0
17.10.2018 20:00:00 11,2 8,5 6,5 15,5 16,6 14,6 1 1 3 2 W 1019,2 - 0 0,0
17.10.2018 19:00:00 13,2 9,2 8,3 17,0 16,8 14,6 0 0 4 2 N 1018,8 - 0 0,0
17.10.2018 18:00:00 17,3 9,0 12,9 18,9 16,7 14,6 5 3 8 5 NNE 1018,5 - 40 0,0
17.10.2018 17:00:00 20,5 8,3 22,1 20,2 16,4 14,6 6 3 14 7 NNE 1018,3 - 60 0,0
17.10.2018 16:00:00 21,3 7,6 23,7 20,7 15,8 14,6 3 2 8 4 NNW 1018,3 - 60 0,0
17.10.2018 15:00:00 21,1 7,6 23,6 20,3 15,2 14,6 3 2 11 6 W 1018,4 - 60 0,0
17.10.2018 14:00:00 20,2 8,4 23,6 19,4 14,5 14,6 7 4 12 6 E 1018,9 - 60 0,0
17.10.2018 13:00:00 19,3 7,8 24,2 17,6 13,9 14,6 2 1 7 4 ENE 1019,2 - 60 0,0
17.10.2018 12:00:00 17,3 8,7 21,4 15,3 13,5 14,6 3 2 9 5 N 1019,5 - 60 0,0
17.10.2018 11:00:00 14,2 9,1 16,9 13,1 13,4 14,6 4 2 7 4 E 1019,7 - 60 0,0
17.10.2018 10:00:00 11,1 7,5 12,7 11,4 13,5 14,6 2 1 4 2 E 1019,9 - 60 0,0
17.10.2018 09:00:00 7,6 5,8 8,2 10,5 13,7 14,6 0 0 4 2 N 1019,8 - 22 0,0
17.10.2018 08:00:00 5,9 5,6 3,2 10,6 14,0 14,6 1 1 4 2 SSE 1019,5 - 0 0,0
17.10.2018 07:00:00 6,4 5,9 3,0 11,2 14,3 14,6 1 1 3 2 SSE 1019,3 - 0 0,0

tt = Température de l'air
td = dewpoint
tt 5cm = Température de l'air 5cm
tt -5cm = Température de l'air -5cm
tt -20cm = Température de l'air -20cm
tt -100cm = Température de l'air -100cm
ff = Vitesse du vent
fx = gusts
dd = Direction du vent
ppp = reduced air pressure
vv = visibility
sd = Ensoleillement
rr = Quantités de précipitations

stations d'obs. à proximité